TimeCDT,TemperatureF,Dew PointF,Humidity,Sea Level PressureIn,VisibilityMPH,Wind Direction,Wind SpeedMPH,Gust SpeedMPH,PrecipitationIn,Events,Conditions,WindDirDegrees,DateUTC
12:05 AM,19.4,15.8,86,29.84,10.0,West,8.1,-,N/A,,Clear,270,2013-03-12 05:05:00
12:25 AM,17.6,14.0,86,29.84,10.0,West,6.9,-,N/A,,Clear,260,2013-03-12 05:25:00
12:45 AM,17.6,12.2,79,29.84,10.0,West,8.1,-,N/A,,Clear,270,2013-03-12 05:45:00
1:05 AM,17.6,12.2,79,29.83,10.0,West,6.9,-,N/A,,Unknown,270,2013-03-12 06:05:00
1:25 AM,19.4,14.0,80,29.83,10.0,West,4.6,-,N/A,,Overcast,270,2013-03-12 06:25:00
1:45 AM,19.4,12.2,74,29.83,10.0,West,6.9,-,N/A,,Overcast,270,2013-03-12 06:45:00
2:05 AM,19.4,12.2,74,29.83,10.0,West,6.9,-,N/A,,Overcast,260,2013-03-12 07:05:00
2:25 AM,21.2,12.2,68,29.83,10.0,West,8.1,-,N/A,,Overcast,270,2013-03-12 07:25:00
2:45 AM,21.2,12.2,68,29.83,10.0,West,9.2,-,N/A,,Overcast,270,2013-03-12 07:45:00
3:05 AM,21.2,14.0,74,29.83,10.0,West,10.4,-,N/A,,Overcast,260,2013-03-12 08:05:00
3:25 AM,21.2,15.8,80,29.83,10.0,West,9.2,-,N/A,,Overcast,260,2013-03-12 08:25:00
3:44 AM,21.2,15.8,80,29.82,10.0,West,8.1,-,N/A,,Overcast,270,2013-03-12 08:44:00
4:05 AM,21.2,15.8,80,29.82,7.0,West,9.2,-,N/A,,Overcast,270,2013-03-12 09:05:00
4:25 AM,21.2,15.8,80,29.82,10.0,West,6.9,-,N/A,,Overcast,270,2013-03-12 09:25:00
4:44 AM,21.2,17.6,86,29.82,10.0,West,8.1,-,N/A,Snow,Light Snow,280,2013-03-12 09:44:00
5:05 AM,21.2,17.6,86,29.83,10.0,WNW,8.1,-,N/A,,Overcast,290,2013-03-12 10:05:00
5:25 AM,21.2,17.6,86,29.83,5.0,West,8.1,-,N/A,Snow,Light Snow,280,2013-03-12 10:25:00
5:44 AM,21.2,17.6,86,29.84,4.0,West,8.1,-,N/A,Snow,Light Snow,280,2013-03-12 10:44:00
6:05 AM,21.2,17.6,86,29.84,7.0,WNW,8.1,-,N/A,Snow,Light Snow,290,2013-03-12 11:05:00
6:25 AM,21.2,17.6,86,29.85,7.0,WNW,9.2,-,N/A,Snow,Light Snow,300,2013-03-12 11:25:00
6:44 AM,21.2,17.6,86,29.85,10.0,NW,9.2,-,N/A,,Overcast,310,2013-03-12 11:44:00
7:05 AM,21.2,17.6,86,29.85,7.0,NW,10.4,-,N/A,Snow,Light Snow,320,2013-03-12 12:05:00
7:25 AM,21.2,15.8,80,29.85,10.0,WNW,9.2,-,N/A,,Overcast,300,2013-03-12 12:25:00
7:44 AM,19.4,15.8,86,29.86,7.0,WNW,11.5,-,N/A,Snow,Light Snow,300,2013-03-12 12:44:00
8:05 AM,19.4,15.8,86,29.86,7.0,WNW,9.2,-,N/A,Snow,Light Snow,300,2013-03-12 13:05:00
8:25 AM,19.4,15.8,86,29.87,5.0,WNW,9.2,-,N/A,Snow,Light Snow,300,2013-03-12 13:25:00
8:44 AM,21.2,15.8,80,29.88,7.0,WNW,11.5,-,N/A,Snow,Light Snow,290,2013-03-12 13:44:00
9:05 AM,21.2,15.8,80,29.89,10.0,WNW,11.5,-,N/A,,Overcast,300,2013-03-12 14:05:00
9:25 AM,21.2,15.8,80,29.89,10.0,WNW,12.7,-,N/A,,Overcast,300,2013-03-12 14:25:00
9:44 AM,21.2,15.8,80,29.90,10.0,WNW,13.8,-,N/A,,Mostly Cloudy,300,2013-03-12 14:44:00
10:05 AM,23.0,15.8,74,29.90,10.0,NW,13.8,-,N/A,,Mostly Cloudy,320,2013-03-12 15:05:00
10:25 AM,23.0,15.8,74,29.90,7.0,NW,13.8,-,N/A,,Overcast,310,2013-03-12 15:25:00
10:45 AM,24.8,15.8,69,29.91,10.0,WNW,11.5,-,N/A,,Mostly Cloudy,300,2013-03-12 15:45:00
11:05 AM,24.8,15.8,69,29.92,10.0,WNW,13.8,-,N/A,,Mostly Cloudy,290,2013-03-12 16:05:00
11:25 AM,24.8,15.8,69,29.92,10.0,WNW,13.8,-,N/A,,Mostly Cloudy,300,2013-03-12 16:25:00
11:44 AM,24.8,15.8,69,29.92,10.0,WNW,17.3,-,N/A,,Mostly Cloudy,300,2013-03-12 16:44:00
12:05 PM,24.8,15.8,69,29.93,10.0,NW,15.0,-,N/A,,Overcast,310,2013-03-12 17:05:00
12:25 PM,24.8,17.6,74,29.94,7.0,NW,16.1,-,N/A,Snow,Light Snow,310,2013-03-12 17:25:00
12:44 PM,24.8,17.6,74,29.94,4.0,WNW,16.1,-,N/A,Snow,Light Snow,300,2013-03-12 17:44:00
1:05 PM,24.8,17.6,74,29.95,7.0,WNW,13.8,-,N/A,Snow,Light Snow,300,2013-03-12 18:05:00
1:25 PM,24.8,17.6,74,29.95,7.0,WNW,17.3,21.9,N/A,Snow,Light Snow,300,2013-03-12 18:25:00
1:44 PM,26.6,17.6,69,29.95,7.0,WNW,17.3,24.2,N/A,Snow,Light Snow,300,2013-03-12 18:44:00
2:05 PM,24.8,17.6,74,29.95,5.0,NW,16.1,20.7,N/A,Snow,Light Snow,310,2013-03-12 19:05:00
2:25 PM,24.8,19.4,80,29.95,1.5,West,17.3,-,N/A,Snow,Light Snow,280,2013-03-12 19:25:00
2:44 PM,24.8,19.4,80,29.96,1.8,WNW,15.0,19.6,N/A,Snow,Light Snow,300,2013-03-12 19:44:00
3:05 PM,24.8,19.4,80,29.96,1.0,WNW,17.3,-,N/A,Snow,Light Snow,290,2013-03-12 20:05:00
3:24 PM,24.8,19.4,80,29.96,1.8,WNW,17.3,20.7,N/A,Snow,Light Snow,300,2013-03-12 20:24:00
3:45 PM,24.8,19.4,80,29.96,1.8,WNW,24.2,-,N/A,Snow,Light Snow,290,2013-03-12 20:45:00
4:05 PM,24.8,17.6,74,29.97,2.0,WNW,21.9,25.3,N/A,Snow,Light Snow,290,2013-03-12 21:05:00
4:24 PM,24.8,17.6,74,29.97,4.0,WNW,20.7,25.3,N/A,Snow,Light Snow,290,2013-03-12 21:24:00
4:45 PM,24.8,17.6,74,29.98,4.0,WNW,18.4,-,N/A,Snow,Light Snow,290,2013-03-12 21:45:00
5:05 PM,24.8,17.6,74,29.99,10.0,WNW,16.1,23.0,N/A,,Overcast,290,2013-03-12 22:05:00
5:25 PM,24.8,17.6,74,29.99,5.0,WNW,17.3,-,N/A,Snow,Light Snow,300,2013-03-12 22:25:00
5:45 PM,24.8,17.6,74,30.00,5.0,NW,16.1,25.3,N/A,Snow,Light Snow,310,2013-03-12 22:45:00
6:05 PM,24.8,17.6,74,30.01,4.0,NW,19.6,23.0,N/A,Snow,Light Snow,310,2013-03-12 23:05:00
6:25 PM,23.0,19.4,86,30.02,1.0,NW,17.3,29.9,N/A,Snow,Snow,310,2013-03-12 23:25:00
6:45 PM,23.0,15.8,74,30.03,10.0,WNW,11.5,-,N/A,,Mostly Cloudy,300,2013-03-12 23:45:00
7:05 PM,23.0,15.8,74,30.04,10.0,WNW,12.7,-,N/A,,Mostly Cloudy,300,2013-03-13 00:05:00
7:25 PM,24.8,12.2,59,30.05,10.0,NW,17.3,20.7,N/A,,Overcast,320,2013-03-13 00:25:00
7:45 PM,24.8,12.2,59,30.06,10.0,NW,17.3,23.0,N/A,,Overcast,320,2013-03-13 00:45:00
8:05 PM,23.0,10.4,59,30.07,10.0,NW,15.0,-,N/A,,Mostly Cloudy,320,2013-03-13 01:05:00
8:25 PM,23.0,10.4,59,30.08,10.0,NW,13.8,-,N/A,,Scattered Clouds,320,2013-03-13 01:25:00
8:45 PM,23.0,12.2,63,30.10,10.0,NW,12.7,-,N/A,,Mostly Cloudy,320,2013-03-13 01:45:00
9:05 PM,23.0,12.2,63,30.10,10.0,NW,15.0,24.2,N/A,,Mostly Cloudy,320,2013-03-13 02:05:00
9:25 PM,21.2,12.2,68,30.12,10.0,NW,10.4,-,N/A,,Scattered Clouds,310,2013-03-13 02:25:00
9:45 PM,21.2,12.2,68,30.12,10.0,NW,13.8,18.4,N/A,,Clear,320,2013-03-13 02:45:00
10:05 PM,21.2,10.4,63,30.13,10.0,NW,12.7,18.4,N/A,,Clear,320,2013-03-13 03:05:00
10:25 PM,21.2,10.4,63,30.14,10.0,NW,12.7,-,N/A,,Clear,320,2013-03-13 03:25:00
10:45 PM,21.2,10.4,63,30.14,10.0,NW,11.5,-,N/A,,Clear,320,2013-03-13 03:45:00
11:05 PM,19.4,10.4,68,30.15,10.0,WNW,8.1,-,N/A,,Clear,300,2013-03-13 04:05:00
11:25 PM,17.6,8.6,68,30.16,10.0,WNW,10.4,-,N/A,,Clear,290,2013-03-13 04:25:00
11:45 PM,17.6,10.4,73,30.17,10.0,WNW,10.4,-,N/A,,Clear,300,2013-03-13 04:45:00